This demonstration page uses our WeatherBlox Daily Observations layout. Learn more.

Left ArrowRight Arrow

39.51506, -84.39828

Hourly Observations for January 19, 2022

Temp ( °F °C ) Dew Point ( °F °C ) Humidity (%) Winds ( mph kmh ) Pressure ( in mb ) Visibility ( mi km ) Precip ( " mm )
12:15 am 00:15 Clear 33 0.8 29 -1.7 84 84 SW 9 15 29.98 1015 10 16 0.00 0.00
12:35 am 00:35 Clear 33 0.8 29 -1.7 84 84 WSW 12 19 29.98 1015 10 16 0.00 0.00
12:55 am 00:55 Clear 33 0.7 29 -1.7 84 84 WSW 9 15 29.98 1015 10 16 0.00 0.00
1:15 am 01:15 Clear 33 0.7 29 -1.5 85 85 WSW 10 17 29.99 1016 10 16 0.00 0.00
1:35 am 01:35 Clear 34 1 30 -1.3 85 85 WSW 9 15 29.98 1015 10 16 0.00 0.00
1:55 am 01:55 Clear 34 1.3 30 -1.3 83 83 SW 9 15 29.97 1015 10 16 0.00 0.00
2:15 am 02:15 Clear 35 1.5 30 -1.1 83 83 SW 10 17 29.96 1015 10 16 0.00 0.00
2:35 am 02:35 Clear 36 2 30 -0.9 81 81 WSW 12 19 29.96 1015 10 16 0.00 0.00
2:55 am 02:55 Clear 38 3.3 31 -0.5 76 76 WSW 14 22 29.97 1015 10 16 0.00 0.00
3:15 am 03:15 Clear 38 3.5 31 -0.4 76 76 WSW 12 19 29.97 1015 10 16 0.00 0.00
3:35 am 03:35 Clear 38 3.6 31 -0.3 76 76 WSW 13 20 29.96 1014 10 16 0.00 0.00
3:55 am 03:55 Clear 38 3.6 31 -0.3 76 76 WSW 13 20 29.96 1014 10 16 0.00 0.00
4:15 am 04:15 Clear 38 3.6 32 -0.2 76 76 WSW 12 19 29.96 1014 10 16 0.00 0.00
4:35 am 04:35 Clear 38 3.6 32 -0.2 76 76 WSW 13 20 29.95 1014 10 16 0.00 0.00
4:55 am 04:55 Clear 39 3.7 32 -0.1 76 76 WSW 10 17 29.95 1014 10 16 0.00 0.00
5:15 am 05:15 Clear 39 3.8 32 0.1 77 77 WSW 12 19 29.95 1014 10 16 0.00 0.00
5:35 am 05:35 Clear 39 4 32 0 75 75 WSW 12 19 29.95 1014 10 16 0.00 0.00
5:55 am 05:55 Clear 39 3.8 32 0 77 77 WSW 12 19 29.95 1014 10 16 0.00 0.00
6:15 am 06:15 Clear 38 3.5 32 0.1 79 79 WSW 9 15 29.96 1014 10 16 0.00 0.00
6:35 am 06:35 Clear 38 3.6 32 0 78 78 WSW 12 19 29.97 1015 10 16 0.00 0.00
6:55 am 06:55 Clear 39 3.8 32 0 77 77 WSW 14 22 29.96 1015 10 16 0.00 0.00
7:15 am 07:15 Clear 39 3.8 32 0 77 77 WSW 14 22 29.96 1015 10 16 0.00 0.00
7:35 am 07:35 Clear 39 4 33 0.3 77 77 WSW 14 22 29.96 1015 10 16 0.00 0.00
7:55 am 07:55 Sunny 39 3.8 32 0.1 77 77 WSW 14 22 29.97 1015 10 16 0.00 0.00
8:15 am 08:15 Mostly Cloudy 39 4.1 32 0.1 75 75 W 14 22 29.98 1015 10 16 0.00 0.00
8:35 am 08:35 Mostly Cloudy 40 4.3 32 0.2 75 75 WSW 16 26 29.98 1015 10 16 0.00 0.00
8:55 am 08:55 Mostly Cloudy 40 4.7 33 0.4 74 74 W 14 22 29.99 1016 10 16 0.00 0.00
9:15 am 09:15 Mostly Cloudy 41 5.2 32 0.2 70 70 W 14 22 30.00 1016 10 16 0.00 0.00
9:35 am 09:35 Partly Cloudy 42 5.5 33 0.5 71 71 WSW 12 19 30.01 1016 10 16 0.00 0.00
9:55 am 09:55 Partly Cloudy 44 6.5 33 0.6 66 66 WSW 13 20 30.01 1016 10 16 0.00 0.00
10:15 am 10:15 Sunny 45 7.3 34 0.9 64 64 W 12 19 30.01 1016 10 16 0.00 0.00
10:35 am 10:35 Sunny 46 7.8 34 1.1 63 63 W 10 17 30.00 1016 10 16 0.00 0.00
10:55 am 10:55 Sunny 46 7.8 34 1 62 62 W 10 17 30.00 1016 10 16 0.00 0.00
11:15 am 11:15 Sunny 47 8.3 34 1.1 61 61 W 13 20 30.00 1016 10 16 0.00 0.00
11:35 am 11:35 Sunny 48 9.1 35 1.5 59 59 W 10 17 30.00 1016 10 16 0.00 0.00
11:55 am 11:55 Sunny 48 8.7 35 1.4 60 60 W 14 22 29.99 1016 10 16 0.00 0.00
12:15 pm 12:15 Sunny 49 9.3 34 1.3 58 58 W 15 24 29.99 1016 10 16 0.00 0.00
12:35 pm 12:35 Sunny 49 9.6 35 1.6 58 58 WNW 13 20 29.98 1015 10 16 0.00 0.00
12:55 pm 12:55 Partly Cloudy 50 9.9 35 1.7 57 57 W 13 20 29.98 1015 10 16 0.00 0.00
1:15 pm 13:15 Partly Cloudy 49 9.4 35 1.6 59 59 W 14 22 29.98 1015 10 16 0.00 0.00
1:35 pm 13:35 Partly Cloudy 50 9.8 35 1.8 58 58 W 13 20 29.98 1015 10 16 0.00 0.00
1:55 pm 13:55 Partly Cloudy 50 10.2 35 1.5 55 55 W 14 22 29.98 1015 10 16 0.00 0.00
2:15 pm 14:15 Mostly Cloudy 50 9.9 35 1.7 57 57 WNW 10 17 29.98 1015 10 16 0.00 0.00
2:35 pm 14:35 Cloudy 49 9.6 33 0.5 53 53 NW 13 20 29.98 1015 10 16 0.00 0.00
2:55 pm 14:55 Cloudy 49 9.5 32 -0.1 51 51 WNW 10 17 29.98 1015 10 16 0.00 0.00
3:15 pm 15:15 Partly Cloudy 49 9.3 30 -1.1 49 49 NW 13 20 29.99 1016 10 16 0.00 0.00
3:35 pm 15:35 Mostly Cloudy 48 8.8 31 -0.8 51 51 NW 12 19 29.99 1016 10 16 0.00 0.00
3:55 pm 15:55 Mostly Cloudy 47 8.2 28 -2.5 47 47 NNW 10 17 30.00 1016 10 16 0.00 0.00
4:15 pm 16:15 Mostly Cloudy 46 8 24 -4.7 41 41 NNW 12 19 30.01 1016 10 16 0.00 0.00
4:35 pm 16:35 Partly Cloudy 46 7.6 19 -7.2 35 35 NW 12 19 30.03 1017 10 16 0.00 0.00
4:55 pm 16:55 Sunny 45 7 20 -6.4 38 38 NW 8 13 30.03 1017 10 16 0.00 0.00
5:15 pm 17:15 Mostly Cloudy 44 6.6 20 -6.5 39 39 NNW 10 17 30.04 1017 10 16 0.00 0.00
5:35 pm 17:35 Cloudy 42 5.5 24 -4.2 50 50 N 10 17 30.06 1018 10 16 0.00 0.00
5:55 pm 17:55 Cloudy 40 4.5 24 -4.2 54 54 N 12 19 30.07 1018 10 16 0.00 0.00
6:15 pm 18:15 Cloudy 39 3.9 23 -5 53 53 N 12 19 30.08 1019 10 16 0.00 0.00
6:35 pm 18:35 Cloudy 38 3.6 24 -4.5 56 56 N 13 20 30.10 1019 10 16 0.00 0.00
6:55 pm 18:55 Cloudy 37 2.8 25 -3.9 62 62 N 12 19 30.11 1020 10 16 0.00 0.00
7:15 pm 19:15 Cloudy 36 2 23 -5.2 59 59 NNE 13 20 30.12 1020 10 16 0.00 0.00
7:35 pm 19:35 Mostly Cloudy 34 1.3 22 -5.8 60 60 N 12 19 30.14 1021 10 16 0.00 0.00
7:55 pm 19:55 Cloudy 34 0.9 21 -5.9 61 61 N 14 22 30.15 1021 10 16 0.00 0.00
8:15 pm 20:15 Cloudy 33 0.6 21 -6 62 62 N 14 22 30.17 1022 10 16 0.00 0.00
8:35 pm 20:35 Cloudy 32 0 19 -7 60 60 N 14 22 30.19 1022 10 16 0.00 0.00
8:55 pm 20:55 Cloudy 31 -0.6 20 -6.4 65 65 NNE 12 19 30.20 1023 10 16 0.00 0.00
9:15 pm 21:15 Cloudy 30 -1.2 19 -7 65 65 NNE 15 24 30.22 1023 10 16 0.00 0.00
9:35 pm 21:35 Cloudy 29 -1.6 19 -7.2 66 66 NE 13 20 30.22 1023 10 16 0.00 0.00
9:55 pm 21:55 Cloudy 28 -2 19 -7.3 67 67 NE 13 20 30.23 1024 10 16 0.00 0.00
10:15 pm 22:15 Cloudy 27 -2.7 18 -8 67 67 NE 13 20 30.25 1024 10 16 0.00 0.00
10:35 pm 22:35 Cloudy 26 -3.1 17 -8.6 66 66 NNE 17 28 30.26 1025 10 16 0.00 0.00
10:55 pm 22:55 Cloudy 26 -3.5 16 -8.9 67 67 NNE 16 26 30.29 1026 10 16 0.00 0.00
11:15 pm 23:15 Cloudy 25 -3.7 15 -9.2 66 66 NNE 16 26 30.29 1026 10 16 0.00 0.00
11:35 pm 23:35 Cloudy 24 -4.2 14 -9.8 65 65 NNE 12 19 30.29 1026 10 16 0.00 0.00
11:55 pm 23:55 Cloudy 24 -4.5 14 -10.2 65 65 NNE 10 17 30.31 1026 10 16 0.00 0.00

Powered by AerisWeather